Hourly Data Report for January 15, 2022

BANCROFT AUTO
ONTARIO
Current Station Operator: ECCC - MSC

45°04'17.000" N
77°52'44.000" W
330.70 m
616I001
71294
WRK

Download Data

Hourly Data (January 2022)
Hourly Data Report for January 15, 2022
TIME
LST
Temp Definition
°C
Dew Point Definition
°C
Rel Hum Definition
%
Precip. Amount Definition
mm

Wind Dir Definition
10's deg

Wind Spd Definition
km/h
Visibility Definition
km
Stn Press Definition
kPa
Hmdx Definition


Wind Chill Definition


Weather Definition


00:00 -25.4 -29.9 66 0.0 36 10   98.87   -34 LegendNANA
01:00 -25.7 -30.2 66 0.0 36 12   98.87   -35 LegendNANA
02:00 -26.1 -30.5 66 0.0 34 12   98.89   -35 LegendNANA
03:00 -26.4 -30.7 67 0.0 35 11   98.94   -35 LegendNANA
04:00 -26.7 -30.8 68 0.0 34 11   98.94   -36 LegendNANA
05:00 -26.9 -30.9 68 0.0 33 9   98.99   -35 LegendNANA
06:00 -27.1 -31.2 68 0.0 34 11   99.05   -36 LegendNANA
07:00 -27.5 -31.6 68 0.0 34 10   99.12   -36 LegendNANA
08:00 -27.8 -31.9 69 0.0 35 8   99.16   -35 LegendNANA
09:00 -27.0 -31.8 64 0.0 35 9   99.21   -35 LegendNANA
10:00 -25.1 -31.7 54 0.0 1 9   99.21   -33 LegendNANA
11:00 -23.1 -31.9 44 0.0 3 11   99.18   -31 LegendNANA
12:00 -21.4 -31.6 39 0.0 8 5   99.15   -26 LegendNANA
13:00 -20.1 -30.8 38 0.0 1 8   99.12   -26 LegendNANA
14:00 -18.6 -29.6 37 0.0 33 7   99.06   -24 LegendNANA
15:00 -18.0 -28.9 38 0.0 36 6   99.00   -23 LegendNANA
16:00 -17.9 -28.1 41 0.0 36 3   98.95   -20 LegendNANA
17:00 -20.7 -26.8 58 0.0 22 1   98.96   -22 LegendNANA
18:00 -23.2 -27.0 71 0.0   0   98.96     LegendNANA
19:00 -24.8 -27.8 76 0.0   0   98.96     LegendNANA
20:00 -26.1 -28.6 79 0.0   0   98.94     LegendNANA
21:00 -27.3 -30.0 78 0.0   0   98.92     LegendNANA
22:00 -28.4 -31.2 77 0.0   0   98.90     LegendNANA
23:00 -28.8 -31.4 78 0.0   0   98.87     LegendNANA

Notes on Data Quality.

Legend

  • E = Estimated
  • M = Missing
  • NA = Not Available*
  • [empty] = Indicates an unobserved value
Date modified: